SCP
0 0 0 0 0 0 0 0 0 0 0 0 0 0 0 0 0 0 0 0 0 0 0 0 0 0 0 0 0 0 0 0 0 0 0 0 0 0 0 0 0 0 0 0 0 0 0 0 0
0 0 0 0 0 0 0 0 0 0 0 0 0 0 0 0 0 0 0 0 0 0 0 0 0 0 0 0 0 0 0 0 0 0 0 0 0 0 0 0 0 0 0 0 0 0 0 0 0
0 0 0 0 0 0 0 0 0 0 0 0 0 0 0 0 0 0 0 0 0 0 0 0 0 0 0 0 0 0 0 0 0 0 0 0 0 0 0 0 0 0 0 0 0 0 0 0 0
0 0 0 0 0 0 0 0 0 0 0 0 0 0 0 0 0 0 0 0 0 0 0 0 0 0 0 0 0 0 0 0 0 0 0 0 0 0 0 0 0 0 0 0 0 0 0 0 0
0 0 0 0 0 0 0 0 0 0 0 0 0 0 0 0 0 0 0 0 0 0 0 0 0 0 0 0 0 0 0 0 0 0 0 0 0 0 0 0 0 0 0 0 0 0 0 0 0
0 0 0 0 0 0 0 0 0 0 0 0 0 0 0 0 0 0 0 0 0 0 0 0 0 0 0 0 0 0 0 0 0 0 0 0 0 0 0 0 0 0 0 0 0 0 0 0 0
0 0 0 0 0 0 0 0 0 0 0 0 0 0 0 0 0 0 0 0 0 0 0 0 0 0 0 0 0 0 0 0 0 0 0 0 0 0 0 0 0 0 0 0 0 0 0 0 0
0 0 0 0 0 0 0 0 0 0 0 0 0 0 0 0 0 0 0 0 0 0 0 0 0 0 0 0 0 0 0 0 0 0 0 0 0 0 0 0 0 0 0 0 0 0 0 0 0
0 0 0 0 0 0 0 0 0 0 0 0 0 0 0 0 0 0 0 0 0 0 0 0 0 0 0 0 0 0 0 0 0 0 0 0 0 0 0 0 0 0 0 0 0 0 0 0 0
0 0 0 0 0 0 0 0 0 0 0 0 0 0 0 0 0 0 0 0 0 0 0 0 0 0 0 0 0 0 0 0 0 0 0 0 0 0 0 0 0 0 0 0 0 0 0 0 0
0 0 0 0 0 0 0 0 0 0 0 0 0 0 0 0 0 0 0 0 0 0 0 0 0 0 0 0 0 0 0 0 0 0 0 0 0 0 0 0 0 0 0 0 0 0 0 0 0
0 0 0 0 0 0 0 0 0 0 0 0 0 0 0 0 0 0 0 0 0 0 0 0 0 0 0 0 0 0 0 0 0 0 0 0 0 0 0 0 0 0 0 0 0 0 0 0 0
0 0 0 0 0 0 0 0 0 0 0 0 0 0 0 0 0 0 0 0 0 0 0 0 0 0 0 0 0 0 0 0 0 0 0 0 0 0 0 0 0 0 0 0 0 0 0 0 0
0 0 0 0 0 0 0 0 0 0 0 0 0 0 0 0 0 0 0 0 0 0 0 0 0 0 0 0 0 0 0 0 0 0 0 0 0 0 0 0 0 0 0 0 0 0 0 0 0
0 0 0 0 0 0 0 0 0 0 0 0 0 0 0 0 0 0 0 0 0 0 0 0 0 0 0 0 0 0 0 0 0 0 0 0 0 0 0 0 0 0 0 0 0 0 0 0 0
0 0 0 0 0 0 0 0 0 0 0 0 0 0 0 0 0 0 0 0 0 0 0 0 0 0 0 0 0 0 0 0 0 0 0 0 0 0 0 0 0 0 0 0 0 0 0 0 0
0 0 0 0 0 0 0 0 0 0 0 0 0 0 0 0 0 0 0 0 0 0 0 0 0 0 0 0 0 0 0 0 0 0 0 0 0 0 0 0 0 0 0 0 0 0 0 0 0
0 0 0 0 0 0 0 0 0 0 0 0 0 0 0 0 0 0 0 0 0 0 0 0 0 0 0 0 0 0 0 0 0 0 0 0 0 0 0 0 0 0 0 0 0 0 0 0 0
0 0 0 0 0 0 0 0 0 0 0 0 0 0 0 0 0 0 0 0 0 0 0 0 0 0 0 0 0 0 0 0 0 0 0 0 0 0 0 0 0 0 0 0 0 0 0 0 0
0 0 0 0 0 0 0 0 0 0 0 0 0 0 0 0 0 0 0 0 0 0 0 0 0 0 0 0 0 0 0 0 0 0 0 0 0 0 0 0 0 0 0 0 0 0 0 0 0
0 0 0 0 0 0 0 0 0 0 0 0 0 0 0 0 0 0 0 0 0 0 0 0 0 0 0 0 0 0 0 0 0 0 0 0 0 0 0 0 0 0 0 0 0 0 0 0 0
0 0 0 0 0 0 0 0 0 0 0 0 0 0 0 0 0 0 0 0 0 0 0 0 0 0 0 0 0 0 0 0 0 0 0 0 0 0 0 0 0 0 0 0 0 0 0 0 0
0 0 0 0 0 0 0 0 0 0 0 0 0 0 0 0 0 0 0 0 0 0 0 0 0 1 1 1 0 0 0 0 0 0 0 0 0 0 0 0 0 0 0 0 0 0 0 0 0
0 0 0 0 0 0 0 0 0 0 0 0 0 0 0 0 0 0 0 0 0 0 0 0 0 1 1 1 1 0 0 0 0 0 0 0 0 0 0 0 0 0 0 0 0 0 0 0 0
0 0 0 0 0 0 0 0 0 0 0 0 0 0 0 0 0 0 0 0 0 0 1 1 1 1 1 1 0 0 0 0 0 0 0 0 0 0 0 0 0 0 0 0 0 0 0 0 0
0 0 0 0 0 0 0 0 0 0 0 0 0 0 0 0 0 0 0 0 0 0 1 1 1 1 1 1 1 1 0 0 0 0 0 0 0 0 0 0 0 0 0 0 0 0 0 0 1
0 0 0 0 0 0 0 0 0 0 0 0 0 0 0 0 0 0 0 0 0 0 0 0 1 1 1 1 1 1 1 0 0 0 0 0 0 0 0 0 0 0 0 0 0 0 0 1 1
0 0 0 0 0 0 0 0 0 0 0 0 0 0 0 0 0 0 0 0 0 0 0 0 0 0 0 0 0 1 1 1 1 1 0 0 0 0 0 0 0 0 0 0 0 0 0 0 0
0 0 0 0 0 0 0 0 0 0 0 0 0 0 0 0 0 0 0 0 0 0 0 0 0 0 0 0 0 1 1 1 1 1 1 0 0 0 0 0 0 1 1 1 0 0 0 0 0
0 0 0 0 0 0 0 0 0 0 0 0 0 0 0 0 0 0 0 0 0 0 0 0 0 0 0 0 1 1 1 1 0 0 0 0 0 0 0 0 0 1 1 1 0 0 0 0 0
Wind_Speed
11 9 6 5 5 3 9 8 6 6 6 7 6 5 6 8 7 7 5 5 4 5 6 8 8 8 8 8 8 8 8 9 10 10 11 12 13 13 13 13 13 13 13 13 13 13 13 12 12
7 6 6 5 1 7 10 8 9 8 7 5 5 5 6 7 7 6 5 5 5 6 6 8 9 8 8 8 8 8 9 9 10 10 11 12 13 13 13 13 13 13 14 13 13 13 12 11 11
6 6 5 2 6 9 9 8 8 8 6 3 4 5 6 6 6 5 6 6 6 6 7 10 9 8 8 8 8 9 9 10 10 11 11 12 13 13 13 12 12 13 13 13 13 12 12 11 11
4 5 5 2 10 10 8 7 6 6 5 4 4 6 7 6 4 6 7 6 6 7 8 10 9 8 8 8 9 9 9 10 11 11 11 11 12 12 12 12 12 12 13 13 12 11 11 10 10
5 5 1 7 10 9 7 6 5 5 5 5 5 7 8 7 7 8 7 6 6 7 7 9 10 8 8 8 9 9 9 9 10 11 11 11 11 11 11 11 11 11 12 12 11 11 10 10 9
5 3 3 8 10 8 7 5 4 5 6 5 5 7 7 6 7 7 7 6 6 7 7 8 10 8 8 8 8 8 8 8 9 10 10 10 10 10 10 10 11 11 11 11 10 10 10 9 9
4 3 6 8 8 7 7 5 4 5 6 5 4 6 7 7 6 7 6 6 6 6 6 6 6 7 7 8 8 7 8 8 8 8 9 9 10 10 10 10 10 11 10 10 9 9 9 9 8
4 3 5 7 7 8 6 5 5 5 7 6 3 5 7 8 7 7 6 6 6 5 5 5 5 5 4 6 8 8 8 7 7 8 9 9 10 10 10 10 10 10 9 9 8 8 8 8 7
5 2 7 8 6 6 5 5 5 5 7 6 5 7 10 11 9 8 7 6 6 5 4 4 4 4 3 4 6 5 6 6 6 7 8 6 6 7 8 10 10 9 8 8 8 7 7 7 7
3 4 9 7 5 5 4 4 4 5 7 7 8 10 11 11 9 8 6 6 6 5 4 4 3 3 3 3 3 2 3 4 4 4 5 4 4 4 6 9 9 8 8 8 7 7 7 6 5
1 4 5 5 4 3 4 4 3 4 5 5 8 11 11 10 8 7 6 5 5 5 4 4 3 3 3 2 2 2 2 3 4 4 3 3 3 4 4 4 6 6 7 5 7 6 4 3 2
2 3 3 4 3 2 3 4 4 4 6 7 9 11 11 9 8 6 6 5 5 5 4 4 4 3 2 2 2 2 2 2 3 4 3 3 2 3 3 2 3 3 2 3 2 2 3 2 2
2 3 3 3 3 3 4 4 4 6 6 8 10 11 10 9 7 6 6 5 5 5 4 4 4 3 3 2 1 2 2 2 3 3 3 2 2 3 3 2 2 2 3 3 2 2 2 2 1
3 2 2 2 4 4 5 4 4 6 7 9 10 10 9 8 8 7 6 6 5 5 5 4 4 4 3 2 1 2 2 2 2 3 3 3 2 2 2 2 2 2 2 2 2 2 2 1 1
2 2 3 3 3 3 3 4 5 7 8 9 9 9 9 8 8 7 6 5 5 5 4 4 4 4 3 2 1 2 2 2 2 2 3 2 2 2 2 2 2 2 3 3 2 2 2 2 2
4 3 2 5 3 3 4 4 7 7 8 8 8 8 8 8 8 7 7 6 5 5 5 3 3 4 3 2 1 1 1 2 2 2 2 2 2 2 1 1 2 2 2 2 2 2 2 1 1
5 2 1 4 3 2 3 2 7 7 7 7 7 8 8 8 8 8 8 7 6 5 5 4 3 3 3 3 2 1 1 1 1 1 1 2 2 2 2 1 2 2 2 2 2 2 1 1 1
1 2 1 1 3 2 3 2 5 7 7 7 7 7 8 8 8 8 8 7 7 6 6 5 4 3 3 3 2 1 1 1 1 1 1 1 1 2 2 2 2 2 2 1 1 1 1 1 1
3 3 2 1 1 3 3 2 4 6 7 7 7 7 8 7 8 9 9 8 8 7 6 6 5 4 3 2 2 2 2 1 1 2 2 1 1 2 2 1 3 3 2 2 2 2 2 2 1
5 4 2 1 1 3 3 3 4 6 6 6 6 7 7 7 8 8 9 9 9 8 7 7 6 5 4 3 2 1 1 1 1 1 2 2 2 2 3 2 2 2 3 3 3 2 2 1 2
6 5 3 2 2 4 4 5 6 6 6 6 6 7 7 7 7 8 9 10 9 9 9 7 6 6 5 4 3 3 2 2 2 2 2 2 2 2 1 2 2 2 2 2 3 3 4 2 2
5 3 4 4 5 3 4 3 4 6 7 7 7 7 7 7 7 7 8 9 10 9 9 8 7 6 5 5 4 4 3 2 2 1 2 2 3 3 3 3 2 2 2 2 4 3 3 4 3
3 2 4 6 6 6 5 6 2 5 5 6 7 7 7 7 8 8 8 8 9 10 9 9 8 7 6 6 5 5 4 2 2 2 2 2 2 3 3 3 3 3 2 2 2 2 4 3 3
4 4 5 8 8 7 5 6 2 3 3 3 5 7 7 7 8 7 7 7 7 9 9 9 9 8 7 6 6 5 4 3 2 3 2 3 2 2 2 3 3 3 2 3 3 3 4 4 4
8 7 6 6 6 4 2 6 2 2 1 2 3 5 7 7 7 8 8 8 7 8 9 9 9 8 8 7 7 6 5 5 4 4 3 2 2 2 2 2 3 3 3 3 3 4 4 4 4
10 10 7 6 5 4 5 6 2 2 1 2 3 3 5 7 7 8 8 8 8 8 9 9 9 8 8 8 7 6 5 4 4 4 3 2 2 1 2 3 3 3 3 3 3 4 4 4 4
9 10 8 9 8 8 5 5 4 4 4 3 3 3 4 6 8 9 9 9 8 8 9 9 9 8 8 7 7 5 5 4 3 3 3 2 1 2 2 3 3 3 3 3 3 3 3 3 4
8 8 7 8 7 8 6 7 4 5 4 3 3 3 3 5 7 8 9 9 8 8 8 9 9 8 8 7 6 5 5 5 4 3 2 2 2 2 2 2 2 2 2 2 3 3 2 3 3
8 10 9 8 8 8 7 3 3 2 2 2 2 2 4 5 7 8 8 8 8 8 8 7 8 8 7 7 6 5 5 5 4 3 3 3 3 3 3 3 3 3 2 2 2 2 2 2 2
10 10 10 9 7 8 9 3 5 2 2 2 1 2 3 4 5 7 7 8 7 7 7 7 6 7 7 7 6 5 5 4 5 4 3 3 3 3 2 3 3 2 2 2 2 2 2 2 2
Wind_Direction
175 182 208 230 226 93 66 64 60 70 67 64 63 52 50 38 23 58 73 72 77 90 96 103 92 87 87 88 93 100 111 119 123 125 131 134 136 137 134 131 129 128 126 126 126 126 125 126 129
172 186 224 239 333 72 69 62 64 62 74 92 82 62 62 62 50 82 94 83 86 89 94 91 90 86 85 88 96 101 110 119 122 123 128 135 136 136 134 133 131 129 128 127 127 129 130 130 132
183 223 259 270 49 53 66 65 72 79 82 81 79 55 44 53 65 85 87 103 92 85 89 91 88 85 83 87 94 100 111 118 124 126 128 133 133 134 134 134 131 131 131 130 128 129 132 130 127
217 227 233 51 65 59 63 79 93 99 85 68 82 82 73 51 56 84 103 110 96 84 85 92 86 83 83 86 90 94 105 115 123 127 128 131 133 134 134 136 134 135 135 134 131 129 128 127 122
238 258 121 76 68 70 74 85 97 91 81 78 80 86 82 72 80 99 112 108 94 86 87 92 88 81 80 79 83 90 96 107 117 124 128 131 134 135 135 134 132 131 134 135 135 134 133 131 128
250 255 50 67 72 74 78 84 90 86 87 91 95 95 82 87 100 107 106 102 96 91 89 92 99 88 85 81 85 90 96 102 110 118 123 128 133 135 135 135 134 134 135 136 136 138 138 136 134
303 360 52 63 75 79 76 70 65 71 79 75 86 95 104 107 109 113 110 108 95 93 92 90 97 105 106 96 86 92 98 104 109 114 119 125 130 132 134 135 137 137 138 140 141 143 142 140 136
299 298 68 65 66 73 83 75 63 59 76 83 83 97 113 125 129 127 118 107 95 92 94 95 95 96 104 105 96 94 102 99 108 117 119 123 131 136 138 137 134 134 137 142 144 143 142 139 137
266 309 53 49 52 75 95 94 86 87 99 94 72 72 103 126 136 134 128 119 108 100 97 96 100 97 98 97 98 104 111 110 118 122 126 137 138 138 140 127 130 136 138 140 138 137 137 143 146
276 31 44 34 42 74 98 89 102 123 114 110 106 100 117 134 140 136 128 122 116 107 101 100 95 97 99 95 102 103 110 113 113 104 122 132 122 119 125 125 136 139 141 138 137 142 158 178 162
9 31 39 48 56 77 105 99 113 120 110 116 126 128 134 138 139 136 129 121 115 116 106 102 97 86 87 96 98 96 105 111 118 111 114 120 122 123 128 135 145 149 154 147 149 166 166 161 154
63 49 35 52 64 84 94 102 101 93 80 101 120 132 140 145 142 142 135 131 126 121 115 109 109 101 89 79 92 108 105 105 109 121 129 123 120 121 119 131 133 143 137 132 138 140 134 142 155
89 65 58 73 90 89 100 100 98 97 106 116 126 137 144 147 145 144 140 138 132 132 129 117 110 103 104 97 72 89 105 105 114 110 114 119 124 123 126 129 136 132 125 141 146 139 133 143 159
65 76 80 99 112 119 111 108 120 111 125 133 140 147 150 150 151 149 149 148 146 138 133 127 126 120 116 110 94 87 110 122 113 112 112 118 120 113 122 139 136 127 130 126 141 139 146 149 123
168 157 134 121 137 141 153 127 119 130 141 143 150 153 154 155 156 156 157 159 151 144 136 136 135 126 129 124 118 111 110 117 116 113 121 125 124 116 134 135 143 128 131 141 150 143 155 166 157
212 224 137 113 142 160 238 105 116 139 156 154 157 159 162 163 165 162 162 165 160 152 142 143 135 134 135 126 117 103 112 125 124 127 129 129 123 136 140 129 124 131 148 148 150 162 165 155 156
210 236 88 124 142 166 239 99 126 153 164 163 166 167 170 168 172 170 171 169 166 162 155 154 149 150 146 143 145 131 116 134 133 128 127 132 144 160 165 135 116 157 154 150 164 135 173 169 171
224 261 245 124 126 212 230 158 144 168 178 176 176 174 178 179 177 173 174 171 168 168 168 167 164 162 165 157 156 163 143 153 152 134 123 149 155 165 176 162 157 171 150 149 139 147 170 208 219
284 274 293 22 87 248 239 213 167 175 191 187 186 187 188 187 177 174 176 177 175 177 178 177 176 170 178 172 174 172 164 170 144 140 124 150 161 161 191 182 168 185 169 181 187 187 184 200 204
242 254 260 186 145 257 248 232 183 180 197 193 189 192 193 184 178 178 181 183 184 182 186 184 184 181 184 171 172 173 148 165 138 114 133 157 160 178 176 173 188 183 180 187 193 205 223 204 206
229 254 274 282 242 223 244 225 191 179 195 198 204 201 199 193 185 182 186 190 188 187 188 187 185 185 186 179 173 160 164 180 155 158 159 162 174 175 163 174 190 195 210 195 206 210 219 226 219
234 243 263 255 255 237 250 264 176 180 190 200 200 198 200 195 192 187 188 191 193 190 185 185 185 186 183 184 185 184 185 179 179 196 156 172 183 185 178 186 187 209 213 211 224 205 227 231 229
257 219 244 259 261 264 238 260 173 170 205 209 201 198 200 198 193 189 191 190 192 189 185 181 181 185 185 190 188 200 198 188 184 188 164 194 176 191 188 188 194 207 215 216 238 225 237 236 244
209 211 223 239 248 251 252 258 237 171 218 212 195 196 197 198 191 185 183 183 186 184 183 179 177 182 184 192 193 199 195 197 198 202 192 198 185 191 197 199 205 213 218 213 224 232 229 249 257
219 229 232 227 230 238 231 254 247 96 195 237 203 193 190 190 188 181 177 178 180 181 180 178 178 182 185 192 195 195 198 199 206 222 203 222 210 190 192 216 215 223 227 228 232 233 248 242 246
222 239 255 264 261 242 205 241 172 126 158 208 208 195 182 181 183 179 175 177 178 179 180 180 181 184 185 189 194 197 204 210 206 214 234 215 235 223 203 219 225 232 237 241 236 243 245 246 251
221 233 259 268 271 268 235 222 197 199 205 197 192 181 174 181 182 179 174 173 174 177 178 181 180 183 185 187 187 191 198 212 214 205 222 227 233 230 215 223 230 238 241 249 249 246 251 247 248
250 235 230 245 257 259 246 237 222 189 203 199 194 187 176 176 180 180 177 174 173 173 174 178 179 181 183 186 192 182 192 198 208 221 215 232 232 239 232 226 236 240 237 236 246 248 244 252 251
214 222 240 248 254 266 266 244 124 186 195 214 201 188 180 177 177 178 177 174 175 172 170 175 179 180 183 188 189 187 187 190 194 204 212 214 223 218 221 234 235 234 235 231 230 255 243 249 259
237 233 234 243 245 256 270 257 114 160 179 191 181 162 164 175 171 171 172 170 176 175 173 175 179 182 184 184 187 188 184 184 186 191 202 207 214 219 211 230 231 232 224 223 224 243 249 255 267